AirNav  
 
 338 users online  

2A1 Jamestown Municipal Airport
Jamestown, Tennessee, USA

GOING TO JAMESTOWN?


FAA INFORMATION EFFECTIVE 29 MARCH 2018

Location

FAA Identifier: 2A1
Lat/Long: 36-20-58.9000N / 084-56-47.9000W
36-20.981667N / 084-56.798333W
36.3496944 / -84.9466389
(estimated)
Elevation: 1693.8 ft. / 516.3 m (surveyed)
Variation: 05W (2020)
From city: 5 miles S of JAMESTOWN, TN
Time zone: UTC -5 (UTC -6 during Standard Time)
Zip code: 38556

Airport Operations

Airport use: Open to the public
Control tower: no
ARTCC: INDIANAPOLIS CENTER
FSS: NASHVILLE FLIGHT SERVICE STATION
NOTAMs facility: BNA (NOTAM-D service available)
Attendance: MON-SAT 0800-1600, ALL SUN 1200-1600
Wind indicator: lighted
Segmented circle: yes
Lights: ACTVT REIL RYS 18/36; INCREASE INTENSITY AND ACTVT MIRL RY 18/36 - CTAF.
Beacon: white-green (lighted land airport)
Operates sunset to sunrise.

Airport Communications

CTAF/UNICOM: 122.8
WX AWOS-3 at 8A3 (18 nm W): 126.175 (931-823-3329)
WX AWOS-3 at SCX (19 nm E): 135.025 (423-569-6651)
  • APCH/DEP SVC PRVDD BY INDIANAPOLIS ARTCC ON FREQS 124.625/371.925 (LONDON 2 RCAG).

Nearby radio navigation aids

VOR radial/distance  VOR name  Freq  Var
LVTr145/17.6LIVINGSTON VOR/DME108.4002W
HCHr005/34.2HINCH MOUNTAIN VOR/DME117.6002W

 
NDB name  Hdg/Dist  Freq  Var  ID
HUCHN058/37.823303WHEM .... . --

Airport Services

Fuel available: 100LL
Parking: hangars and tiedowns
Airframe service: NONE
Powerplant service: MAJOR
Bottled oxygen: NONE
Bulk oxygen: NONE

Runway Information

Runway 18/36

Dimensions: 3498 x 75 ft. / 1066 x 23 m
Surface: asphalt, in fair condition
Weight bearing capacity: 
Single wheel: 17.0
Double wheel: 22.0
Runway edge lights: medium intensity
RUNWAY 18  RUNWAY 36
Latitude: 36-21.270410N36-20.693993N
Longitude: 084-56.796790W084-56.801522W
Elevation: 1693.8 ft.1677.9 ft.
Gradient: 0.5% DOWN0.5% UP
Traffic pattern: leftleft
Runway heading: 185 magnetic, 180 true005 magnetic, 000 true
Markings: basic, in fair conditionbasic, in fair condition
Visual slope indicator: 4-light PAPI on left (4.00 degrees glide path)
RY 18 PAPI ON CONTINUOUSLY.
4-light PAPI on left (4.00 degrees glide path)
RY 36 PAPI ON CONTINUOUSLY.
Runway end identifier lights: yesyes
Touchdown point: yes, no lightsyes, no lights
Obstructions: 44 ft. tree, 1015 ft. from runway, 76 ft. left of centerline, 18:1 slope to clear67 ft. tree, 1596 ft. from runway, 173 ft. left of centerline, 21:1 slope to clear

Airport Ownership and Management from official FAA records

Ownership: Publicly-owned
Owner: CITY OF JAMESTOWN
CITY HALL PO BOX 670
JAMESTOWN, TN 38556
Phone 931-879-8815
Manager: LONNIE HULL
125 AIRPORT RD
JAMESTOWN, TN 38556
Phone 931-879-8948
AFTER HRS CALL 931-879-5685.

Airport Operational Statistics

Aircraft based on the field: 10
Single engine airplanes: 8
Multi engine airplanes: 1
Ultralights: 1
    
Aircraft operations: avg 39/week *
59% transient general aviation
40% local general aviation
1% military
* for 12-month period ending 31 May 2016

Instrument Procedures

NOTE: All procedures below are presented as PDF files. If you need a reader for these files, you should download the free Adobe Reader.

NOT FOR NAVIGATION. Please procure official charts for flight.
FAA instrument procedures published for use from 29 March 2018 at 0901Z to 26 April 2018 at 0900Z.

 
IAPs - Instrument Approach Procedures
RNAV (GPS)-B   download (160KB)
RNAV (GPS)-C   download (188KB)
VOR-A   download (155KB)
NOTE: Special Take-Off Minimums/Departure Procedures apply   download (126KB)

Other nearby airports with instrument procedures:

8A3 - Livingston Municipal Airport (18 nm W)
KSCX - Scott Municipal Airport (19 nm E)
KCSV - Crossville Memorial Airport-Whitson Field (25 nm S)
KRKW - Rockwood Municipal Airport (29 nm SE)
KEKQ - Wayne County Airport (31 nm N)
 
Loc | Ops | Rwys | IFR | FBO | Links
Com | Nav | Svcs | Stats | Notes

AirNav Hotels Sweepstakes
 
Area around 2A1 (Jamestown Municipal Airport)
 
Road maps at: MapQuest Bing Google
 
Aerial photo
WARNING: Photo may not be current or correct
Aerial photo of 2A1 (Jamestown Municipal Airport)
Photo by Marc Mueller

Do you have a better or more recent aerial photo of Jamestown Municipal Airport that you would like to share? If so, please send us your photo.

 
Sectional chart

 
Airport distance calculator
Flying to Jamestown Municipal Airport? Find the distance to fly.

From to 2A1

Sunrise and sunset
Times for 19-Apr-2018
 Local
(UTC-5)
 Zulu
(UTC)
Morning civil twilight05:3510:35
Sunrise06:0211:02
Sunset19:1600:16
Evening civil twilight19:4300:43

Current date and time
Zulu (UTC)  19-Apr-2018 09:20:22
Local (UTC-5)  19-Apr-2018 04:20:22
 
METAR
K8A3 
18nm W 
190855Z AUTO 31008KT 10SM BKN038 07/01 A2999 RMK A01
KSCX 
19nm E 
190855Z AUTO 29008KT 10SM OVC033 08/03 A2995 RMK A01
KCSV 
25nm S 
190853Z AUTO 31011G18KT 10SM CLR 07/02 A2998 RMK AO2 SLP142 T00670017 51027
KRKW 
29nm SE 
190855Z AUTO 32007G16KT 290V350 10SM CLR 09/03 A2995 RMK A01
KEKQ 
31nm N 
190856Z AUTO 32010G16KT 10SM FEW030 OVC038 08/03 A3000 RMK AO2 SLP180 T00780028 53016
KSRB 
33nm SW 
190855Z AUTO VRB05G13KT 10SM SCT040 08/03 A3000 RMK A01
TAF
NOTAMs
Click for the latest NOTAMs
NOTAMs are issued by the DoD/FAA and will open in a separate window not controlled by AirNav.

 

 
 

FBO, Fuel Providers, and Aircraft Ground Support

  
 Business Name 
 
 Contact 
 
 Services / Description 
 
Fuel Prices
 
Comments
  
Jamestown Municipal Airport 931-879-8948
no information available

If you are affiliated with Jamestown Municipal Airport and would like to show here your services, contact info, web link, logo, and more, click here
100LL
PS $4.00 
 Updated 12-Apr-2018
 
   write
PS=Pump service
Update Fuel Prices
 

Would you like to see your business listed on this page?

 If your business provides an interesting product or service to pilots, flight crews, aircraft, or users of the Jamestown Municipal Airport, you should consider listing it here.  To start the listing process, click on the button below
 
Add a business
 

Other Pages about Jamestown Municipal Airport

Update a link
 
Copyright © AirNav, LLC. All rights reserved. Privacy Policy  Contact